Погода в Романовке

Поиск расширенной информации на нашем сайте:

Полезная информация:

Новости сайта



02.01.2020
Опубликован Долгосрочный прогноз погоды по городам России и ближнего зарубежья на январь 2020 года.
Карты: Прогноз на январь и февраль 2020 года, Сравнение прогнозируемой аномалии приземной температуры воздуха на январь 2020 года по разным моделям.




Погода в Романовке - сегодня

Время (UTC), дата Ветер
(°,м/с) 
Видим.   Явления Облачность Т
(°С)
Тd
(°С)
f(%) Тe
(°С)
Pmin
(гПа)
dP
(гПа)
Po
(мм)
O2
(г/м3)
Тmin Tmax R s Состояние
почвы
21 23.11.20 340 (С) н/о    10/0 средняя, верхняя 
[Ac As|Ci sp]
-9.1 -10.6 89 -9  1025  683  286           
00 24.11.20 320 (СЗ) н/о    3/0 средняя 
[Ac trans]
-11 -11.9 93 -11  1028  1.8  685  288  -11.6      равномерный
сухой снег
100% 
03 24.11.20 020 (С) 20000 м    ясно 
-6.1 -12.4 61 -8  1027.6  1.6  686  284  -13.5         
06 24.11.20 340 (С) 20000 м    3/3 1000 м кучево-дожд. 
[Cb cap]
-4.9 -19.4 31 -8  1027.1  686  283           
09 24.11.20 340 (С) н/о    ясно 
-7.7 -18.7 41 -9  1029.5  1.1  687  286           
12 24.11.20 300 (СЗ) н/о    ясно 
-11.2 -18.7 54 -13  1033.1  1.8  688  290    -4.4       
15 24.11.20 240 (ЮЗ) н/о    ясно 
-17.5 -20.6 77 -18  1038  1.6  689  298           
18 24.11.20 060 (СВ) н/о    ясно 
-22.8 -24.9 83 -23  1042.2  1.4  690  305           
21 24.11.20 тихо ()   н/о    ясно 
-25.1 -27.7 79 -25  1044.5  691  308           
00 25.11.20 тихо ()   н/о    ясно 
-27.6 -30.4 77 -28  1047.6  1.5  692  312  -27.6      равномерный
сухой снег
100% 
03 25.11.20 210 (ЮЗ) 20000 м    ясно 
-19.3 -23.2 71 -22  1044.2  0.8  693  302  -27.9         
06 25.11.20 тихо ()   20000 м    ясно 
-8.3 -21.8 33 -8  1038.1  -0.7  692  289           
09 25.11.20 240 (ЮЗ) н/о    ясно 
-12.4 -24.1 37 -12  1040.2  0.1  692  294           
12 25.11.20 070 (В) н/о    ясно 
-19.8 -24.6 66 -20  1044.3  0.6  693  303    -8.3       
15 25.11.20 тихо ()   н/о    ясно 
-24.3 -26.8 80 -24  1047.1  0.3  693  308           
18 25.11.20 210 (ЮЗ) н/о    4/0 средняя, верхняя 
[Ac lent|Ci fib]
-23.1 -25.9 78 -24  1046.5  0.1  693  307           
21 25.11.20 160 (Ю) н/о    ясно 
-25.5 -28.1 79 -26  1047.2  -0.6  693  310           
00 26.11.20 тихо ()   н/о    ясно 
-28 -30.9 76 -28  1049.3  0.7  693  313  -28      равномерный
сухой снег
100% 
03 26.11.20 тихо ()   20000 м    ясно 
-21 -25.2 69 -21  1046.1  0.4  694  304  -28.1         
06 26.11.20 200 (Ю) 20000 м    ясно 
-11.7 -20.3 49 -12  1040.2  -1.2  693  293           
09 26.11.20 240 (ЮЗ) н/о    ясно 
-15.2 -20.7 63 -15  1042  0.2  693  297           
12 26.11.20 210 (ЮЗ) н/о    ясно 
-19.7 -22 82 -20  1045.4  694  303    -11.7       
15 26.11.20 тихо ()   н/о    ясно 
-24.6 -27.1 80 -25  1048.3  0.3  694  309           
18 26.11.20 тихо ()   н/о    ясно 
-26.9 -29.7 77 -27  1049.7  0.2  694  312           
21 26.11.20 тихо ()   н/о    ясно 
-28.3 -31.4 75 -28  1049.9  -0.5  694  313           
Время (UTC), дата Ветер
(°,м/с) 
Видим.   Явления Облачность Т
(°С)
Тd
(°С)
f(%) Тe
(°С)
Pmin
(гПа)
dP
(гПа)
Po
(мм)
O2
(г/м3)
Тmin Tmax R s Состояние
почвы

Для получения пояснительной информации подведите курсор к названию столбца.

ПОГОДА в Романовке - архив

Всё, что Вы хотите узнать о погоде в Романовке - удобно и подробно!

Выберите нужную дату (начиная с 1 января 2019* года) и нажмите кнопку "Найти".
Будут отображены архивные сводки погоды по пункту Романовка, начиная с указанной даты.


Отображать данные в формате CSV (для использования в таблицах Excel)


Внимание! Наш архив погоды предназначен исключительно для личного некоммерческого использования в познавательных целях. Если Вам необходимы официальные справки о состоянии погоды (для производственных, юридических, коммерческих и т.п. целей), обращайтесь в органы Росгидромета.

*Примечание: данная дата относится к архиву по метеостанциям СССР (Россия, СНГ, Балтия).
Архив по метеостанциям Зарубежной Европы и Азии (кроме Китая) хранится 10 дней, по другим регионам земного шара (Китай, Африка, Америка, Австралия, Океания) - 1 день.

Романовка - район местоположения метеостанции


Название, широта, долгота, высота метеостанции:
Романовка 53.2°ш. 112.8°д. 923 м над ур. моря [Российская Федерация]

Дополнительная информация

В oтличие oт бoльшинства пoгoдных сайтoв мы публикуем пoдрoбную метеoинфoрмацию в детальнoм прoфессиoнальнoм фoрмате.

Характеристики температуры и влажнoсти вoздуха измеряются на высoте 2 м в тени вдали oт зданий и деревьев.
Скoрoсть ветра измеряется на высoте 10 м (на урoвне рoста челoвека скoрoсть ветра ниже в 1.5-2 раза). Если метеoстанция нахoдится в гoрoде или в лесу, тo скoрoсть ветра занижена на 2-4 м/с пo сравнению с oткрытым местoм. Скoрoсть ветра над акватoриями крупных рек и oзёр, а также на вершинах хoлмoв на 2-5 м/с выше, чем в oбычных услoвиях.
Атмoсфернoе давление в разных тoчках местнoсти мoжет значительнo oтличаться oт давления на метеoстанции, в зависимoсти oт услoвий рельефа (при пoдъёме на 10 м давление пoнижается примернo на 1 мм рт.ст.).